Regional Weather Roundup
Issued by NWS

Home | Current Version | Previous Version | Graphics & Text | Print | Product List | Glossary On
Versions: 1 2 3 4 5 6 7 8 9 10 11 12 13 14 15 16 17 18 19 20 21 22 23 24 25 26 27 28 29 30 31 32 33 34 35 36 37 38 39 40 41 42 43 44 45 46 47 48 49 50
000
ASUS43 KFSD 241802
RWRSD

WEATHER ROUNDUP FOR SOUTH DAKOTA
NATIONAL WEATHER SERVICE SIOUX FALLS SD
1200 PM CST FRI FEB 24 2017

NOTE: "FAIR" INDICATES FEW OR NO CLOUDS BELOW 12,000 FEET WITH NO
SIGNIFICANT WEATHER AND/OR OBSTRUCTIONS TO VISIBILITY.


SDZ001>005-009-010-012>017-241900-
NORTHWEST AND NORTH CENTRAL SOUTH DAKOTA

CITY           SKY/WX    TMP DP  RH WIND       PRES   REMARKS
BUFFALO          N/A     23  11  60 SE8       30.02F WCI  14
FAITH            N/A     24  13  62 CALM      30.11F
MOBRIDGE       MOSUNNY   31  13  47 N16       30.09S WCI  20
$$

SDZ012>016-024>037-041>051-057-063-072>074-241900-
SOUTHWEST AND SOUTH CENTRAL SOUTH DAKOTA

CITY           SKY/WX    TMP DP  RH WIND       PRES   REMARKS
RAPID CTY ARPT CLOUDY    21  15  78 CALM      30.08F
PIERRE         CLOUDY    28  12  51 N14       30.10F WCI  17
CUSTER         CLOUDY    18   2  49 CALM      29.92S
PHILIP         CLOUDY    27  11  51 N8        30.12F WCI  19
PINE RIDGE     CLOUDY    22  17  81 N7        30.07R WCI  13
SPEARFISH      FAIR      18  18 100 CALM      30.03S
WINNER         MOCLDY    25  15  66 N16       30.08S WCI  12
$$

SDZ004>011-016>023-039-040-241900-
NORTHEAST SOUTH DAKOTA

CITY           SKY/WX    TMP DP  RH WIND       PRES   REMARKS
ABERDEEN       MOSUNNY   28  16  60 N16       30.08F WCI  16
WATERTOWN      CLOUDY    25  11  55 N26G32    29.97F WCI   9
BROOKINGS      MOSUNNY   25  11  55 N26G35    29.93F WCI   9
SISSETON         N/A     25  16  68 N23       30.04S WCI  10
$$

SDZ017-020-022-023-036>040-048>070-241900-
SOUTHEAST SOUTH DAKOTA

CITY           SKY/WX    TMP DP  RH WIND       PRES   REMARKS
SIOUX FALLS    CLOUDY    24  14  65 N22G29    29.93R WCI   9
HURON          CLOUDY    29  12  49 N22G30    30.05F WCI  15
CHAMBERLAIN    CLOUDY    28  17  63 N15G24    30.07S WCI  16
MITCHELL       CLOUDY    28  15  58 N24G35    30.03S WCI  14
YANKTON        CLOUDY    25  12  58 N21       29.97R WCI  10
$$

ABBREVIATIONS USED IN REMARKS
   TC - TEMPERATURE IN CELSIUS
  WCI - WIND CHILL INDEX
   HX - HEAT INDEX
  VSB - VISIBILITY





USA.gov is the U.S. government's official web portal to all federal, state and local government web resources and services.